Simultaneous Nadir Overpasses (SNOs) Predictions

Prediction of SNOs between NOAA-15 and METOP-C Satellite Orbit:

Table of predicted SNOs for the next 14.0 days since TLE Epoch: 4/27/2025
Index Date (NOAA-15) Time (NOAA-15) Lat,Lon (NOAA-15) SZA (NOAA-15 ) Date (METOP-C) Time (METOP-C) Lat,Lon (METOP-C) SZA (METOP-C ) Distance(km) Time Diff (sec)
1 05/10/2025 14:34:32 81.00, -1.32 65.20 05/10/2025 14:33:18 81.00, -1.28 65.18 0.77 74
2 05/10/2025 15:25:01 -80.99, 166.12 114.81 05/10/2025 15:23:59 -81.00, 166.09 114.83 1.01 62
3 05/10/2025 16:15:31 81.01, -26.82 65.17 05/10/2025 16:14:40 80.99, -26.75 65.14 2.16 51
4 05/10/2025 17:06:00 -81.01, 140.63 114.84 05/10/2025 17:05:21 -81.00, 140.63 114.87 1.19 39
5 05/10/2025 17:56:29 81.00, -51.95 65.15 05/10/2025 17:56:01 81.00, -51.85 65.15 1.83 28
6 05/10/2025 18:46:58 -81.00, 115.49 114.86 05/10/2025 18:46:42 -81.01, 115.52 114.85 0.78 16
7 05/10/2025 19:37:27 81.00, -77.09 65.14 05/10/2025 19:37:22 81.01, -76.95 65.17 3.00 5
8 05/10/2025 20:27:57 -81.01, 90.00 114.89 05/10/2025 20:28:04 -81.00, 90.05 114.89 1.76 7
9 05/10/2025 21:18:26 81.01,-102.59 65.11 05/10/2025 21:18:44 81.01,-102.42 65.13 3.03 18
10 05/10/2025 22:08:55 -81.01, 64.87 114.90 05/10/2025 22:09:25 -81.01, 64.95 114.88 1.47 30
11 05/10/2025 22:59:24 81.01,-127.73 65.10 05/10/2025 23:00:06 81.00,-127.89 65.10 2.80 42
12 05/10/2025 23:49:54 -81.02, 39.37 114.93 05/10/2025 23:50:47 -81.00, 39.48 114.91 2.61 53
13 05/11/2025 00:40:22 81.00,-152.87 65.09 05/11/2025 00:41:27 81.01,-152.99 65.11 2.52 65



Historial Predications of SNOs between NOAA-15 and METOP-C
